AirNav   ATP
 
 1119 users online  

W48 Essex Skypark Airport
Baltimore, Maryland, USA

GOING TO BALTIMORE?


FAA INFORMATION EFFECTIVE 11 OCTOBER 2018

Location

FAA Identifier: W48
Lat/Long: 39-15-44.7150N / 076-25-55.6050W
39-15.745250N / 076-25.926750W
39.2624208 / -76.4321125
(estimated)
Elevation: 15 ft. / 4.6 m (surveyed)
Variation: 10W (1985)
From city: 3 miles SE of BALTIMORE, MD
Time zone: UTC -4 (UTC -5 during Standard Time)
Zip code: 21221

Airport Operations

Airport use: Open to the public
Activation date: 01/1947
Control tower: no
ARTCC: WASHINGTON CENTER
FSS: LEESBURG FLIGHT SERVICE STATION
NOTAMs facility: DCA (NOTAM-D service available)
Attendance: UNATNDD
Wind indicator: lighted
Segmented circle: no
Lights: ACTVT REIL RY 16 & 34; MIRL RY 16/34 - 3 CLICKS ON CTAF.
Beacon: white-green (lighted land airport)
Operates sunset to sunrise.

Airport Communications

CTAF/UNICOM: 122.7
WX AWOS-3PT at MTN (4 nm N): 124.925 (410-682-8848)
WX ASOS at BWI (12 nm SW): PHONE 410-691-1278
WX AWOS-3 at W29 (18 nm S): 120.575 (410-643-8795)
WX AWOS-3 at FME (19 nm SW): 123.925

Nearby radio navigation aids

VOR radial/distance  VOR name  Freq  Var
BALr074/12.0BALTIMORE VORTAC115.1011W
PPMr234/17.2PHILLIPS VOR/DME108.4009W
EMIr127/28.9WESTMINSTER VORTAC117.9008W
ADWr047/34.0ANDREWS VORTAC113.1010W
OTTr034/36.4NOTTINGHAM VORTAC113.7010W
DCAr058/37.1WASHINGTON VOR/DME111.0009W

 
NDB name  Hdg/Dist  Freq  Var  ID
ELLICOTT106/16.137111WFND ..-. -. -..
GEORGETOWN067/37.932309WGTN --. - -.

Airport Services

Parking: tiedowns
Airframe service: NONE
Powerplant service: NONE
Bottled oxygen: NONE
Bulk oxygen: NONE

Runway Information

Runway 16/34

Dimensions: 2084 x 30 ft. / 635 x 9 m
Surface: asphalt, in good condition
Runway edge lights: medium intensity
RUNWAY 16  RUNWAY 34
Latitude: 39-15.889000N39-15.601500N
Longitude: 076-26.047500W076-25.806000W
Elevation: 9.0 ft.14.0 ft.
Traffic pattern: leftleft
Runway heading: 157 magnetic, 147 true337 magnetic, 327 true
Displaced threshold: 185 ft.no
Markings: basic, in good conditionbasic, in good condition
Visual slope indicator: 2-light PAPI on left (4.50 degrees glide path)2-light PAPI on right (4.50 degrees glide path)
Runway end identifier lights: yesyes
Obstructions: 80 ft. trees, 533 ft. from runway, 123 ft. right of centerline, 4:1 slope to clear
APPROACH RATIO 20:1 AT DSPL THD AND CL
84 ft. trees, 1159 ft. from runway, 183 ft. left of centerline, 11:1 slope to clear

Runway 16W/34W

Dimensions: 3000 x 300 ft. / 914 x 91 m
Surface: water
RUNWAY 16W  RUNWAY 34W
Traffic pattern: leftleft

Airport Ownership and Management from official FAA records

Ownership: Privately-owned
Owner: ESSEX SKYPARK ASSOCIATION, INC.
1401 DIFFENDALL ROAD
ESSEX, MD 21221
Phone (443) 996-1743
BALTIMORE COUNTY IS LAND DEED HOLDER AND GRANTED A 99 YEAR LEASE IN CY 2013
Manager: CLAUDIUS KLIMT
1401 DIFFENDALL ROAD
ESSEX, MD 21221
Phone 410-215-5761

Airport Operational Statistics

Aircraft based on the field: 35
Single engine airplanes: 30
Multi engine airplanes: 2
Helicopters: 2
Ultralights: 1
    
Aircraft operations: avg 107/week *
89% local general aviation
11% transient general aviation
* for 12-month period ending 05 October 2017

Additional Remarks

NO TOUCH AND GO LANDINGS.
RWY 16/34 CLSD TO HEL PAT AND PLA; MIL, EMERG, AND MED ACFT PPR.
FOR CD CTC POTOMAC APCH AT 866-429-5882.

Instrument Procedures

There are no published instrument procedures at W48.

Some nearby airports with instrument procedures:

KMTN - Martin State Airport (4 nm N)
KBWI - Baltimore/Washington International Thurgood Marshall Airport (12 nm SW)
KAPG - Phillips Army Airfield (17 nm NE)
W29 - Bay Bridge Airport (18 nm S)
KFME - Tipton Airport (19 nm SW)
 
Loc | Ops | Rwys | IFR | FBO | Links
Com | Nav | Svcs | Stats | Notes


 
Area around W48 (Essex Skypark Airport)
 
Road maps at: MapQuest Bing Google
 
Aerial photo
WARNING: Photo may not be current or correct
Aerial photo of W48 (Essex Skypark Airport)
Photo taken 14-Oct-2016
looking northeast.

Do you have a better or more recent aerial photo of Essex Skypark Airport that you would like to share? If so, please send us your photo.

 
Sectional chart

 
Airport distance calculator
Flying to Essex Skypark Airport? Find the distance to fly.

From to W48

Sunrise and sunset
Times for 16-Oct-2018
 Local
(UTC-4)
 Zulu
(UTC)
Morning civil twilight06:5010:50
Sunrise07:1711:17
Sunset18:2522:25
Evening civil twilight18:5222:52

Current date and time
Zulu (UTC)  16-Oct-2018 12:55:34
Local (UTC-4)  16-Oct-2018 08:55:34
 
METAR
KMTN 
3nm N 
161145Z 31008KT 10SM BKN130 12/06 A3019
KDMH 
9nm W 
161154Z AUTO 13/03 A3018 RMK AO1 SLP220 70008 T01280033 10178 20128 53018
KBWI 
13nm SW 
161154Z 32005KT 10SM FEW070 SCT110 BKN160 OVC250 11/05 A3019 RMK AO2 SLP221 70009 T01110050 10167 20111 53020
KNAK 
17nm S 
161154Z AUTO 34013KT 10SM CLR 16/06 A3019 RMK AO2 SLP224 70002 T01560061 10206 20150 53024
KW29 
18nm S 
161220Z AUTO 33012G17KT 10SM CLR 13/05 A3020 RMK AO2
KFME 
19nm SW 
161221Z AUTO 32005KT 10SM CLR 11/06 A3023 RMK AO1
TAF
KMTN 
3nm N 
161134Z 1612/1712 31010KT P6SM BKN200 FM161700 28005KT P6SM BKN200 FM162100 22005KT P6SM SCT100 BKN200 FM170000 VRB04KT P6SM SCT100 BKN200
KBWI 
13nm SW 
161134Z 1612/1718 32010KT P6SM BKN200 FM161700 30005KT P6SM BKN200 FM162100 23005KT P6SM SCT100 BKN200 FM170000 VRB04KT P6SM SCT100 BKN200 FM171300 28009KT P6SM SCT200 FM171700 28012G22KT P6SM FEW250
NOTAMs
Click for the latest NOTAMs
NOTAMs are issued by the DoD/FAA and will open in a separate window not controlled by AirNav.

 

 
 

FBO, Fuel Providers, and Aircraft Ground Support

  
 Business Name 
 
 Contact 
 
 Services / Description 
 
Fuel Prices
 
Comments
  
Dense Air LLC 443-415-0565
no information available

If you are affiliated with Dense Air LLC and would like to show here your services, contact info, web link, logo, and more, click here
100LL
RA $4.89 
 Updated 30-Aug-2018
 
   write
RA=Restricted
Update Fuel Prices
 

Would you like to see your business listed on this page?

 If your business provides an interesting product or service to pilots, flight crews, aircraft, or users of the Essex Skypark Airport, you should consider listing it here.  To start the listing process, click on the button below
 
Add a business
 

Other Pages about Essex Skypark Airport

www.essexskyparkassn.org/...
 
Update a link
 
Copyright © AirNav, LLC. All rights reserved. Privacy Policy  Contact